Retour au catalogue

GLOBALSTAR M047

ActifCommunicationsUNKNOWN
NORAD 25772·PAYLOAD·🇺🇸 United States

Lancé Jun 10, 1999 depuis Cape Canaveral Space Force Station

Loading…

Prochains Passages (prochaines 24 heures)

TLE

FraisSource: Space-Track

Époque: Sep 14, 2026, 13:53 UTC

1 25772U 99031C   26257.57884664 -.00000059  00000-0  30611-3 0  9994
2 25772  51.9812 197.7823 0016631 325.1275  34.8440 11.31935165522568

Suivez GLOBALSTAR M047 en temps réel avec AllMySat

Download on the App Store